User: anonymous   Login
Location: Unspecified
(0.0000°N, 0.0000°E)
Time: 19:24:58
(UTC+00:00)
Language:

Miranda - Orbit

View from above orbital plane
View from above orbital plane
View from above satellite
View from above satellite

Ground track
Ground track

The orbit data is extracted from the following two-line orbital elements,

1 07213U 74013A   18019.16740018  .00000056  00000-0  26835-4 0  9993
2 07213  97.8360  70.8337 0118985  39.8126 321.1721 14.42830040296984
Epoch (UTC): 19 January 2018 04:01:03
Eccentricity: 0.0118985
inclination: 97.8360°
perigee height: 664 km
apogee height: 834 km
right ascension of ascending node: 70.8337°
argument of perigee: 39.8126°
revolutions per day: 14.42830040
mean anomaly at epoch: 321.1721°
orbit number at epoch: 29698

The dashed part of the orbit path shows where the satellite is in the earth's shadow,  

DLR